LogID,LogEntryDate,LogEntryTime,LogEntrySeconds,LogNotes,AFR,ZTXUser2,RearAFR,EthanolPercent,STFT,CurrentLTFT,IdleLTFT,CruiseLTFT,Load,O2Sensor2,IPW,AFRMAP,LoadTiming,TimingAdv,KnockSum,RPM,Baro,MAP,Boost,WGDC_Active,MAF,IDC,InVVTtarget,ExVVTtarget,InVVTactual,ExVVTactual,TPS,APP,IAT,WGDCCorr,Speed,Battery,ECT,MAT,MAPCalcs,IMAPCalcs,MAFCalcs,ChosenCalc,Custom
1,2017-09-04,19:41:26.82868,0.07829,,,,14.4627450980392,76.078431372549,-2.9296875,9.375,7.2265625,9.375,29.6875,1.91296,1.9,14.7,29.6875,40,0,2546.875,15.08392496,6.8505699,-8.23335506,25,1.784328,4.03255208333333,15.625,-8.75,15.78125,-9.53125,17.2549019607843,18.2117647058824,96.8,0,37.29,14.07936,183.2,114.8,34.375,0,29.6875,29.6875,
2,2017-09-04,19:41:26.85868,0.10777,,,,14.3450980392157,76.078431372549,-2.9296875,9.375,7.2265625,9.375,29.6875,1.87392,1.9,14.7,29.6875,40,0,2539.0625,15.08392496,6.8505699,-8.23335506,25,1.784328,4.02018229166667,15.625,-8.75,15.78125,-9.53125,17.2549019607843,18.2117647058824,96.8,0,37.29,14.07936,183.2,114.8,34.375,0,29.6875,29.6875,
3,2017-09-04,19:41:26.89168,0.14092,,,,14.3450980392157,75.2941176470588,-2.9296875,9.375,7.2265625,9.375,29.6875,1.87392,1.9,14.7,29.6875,40,0,2539.0625,15.08392496,6.9470568,-8.13686816,25,1.745112,4.02018229166667,15.625,-8.75,15.78125,-9.53125,17.2549019607843,18.2117647058824,96.8,0,37.29,14.07936,183.2,114.8,34.375,0,28.125,29.6875,
4,2017-09-04,19:41:26.93369,0.18302,,,,14.3450980392157,75.2941176470588,-3.3203125,9.375,7.2265625,9.375,29.6875,1.87392,1.9,14.7,29.6875,40,0,2531.25,15.08392496,6.9470568,-8.13686816,25,1.745112,4.0078125,15.625,-8.75,15.78125,-9.21875,17.2549019607843,18.2117647058824,96.8,0,37.29,14.07936,183.2,114.8,34.375,3.125,26.5625,28.125,
5,2017-09-04,19:41:26.99569,0.24437,,,,14.3843137254902,75.2941176470588,-3.3203125,9.375,7.2265625,9.375,28.125,1.89344,1.8,14.7,28.125,40,0,2539.0625,15.08392496,6.5611092,-8.52281576,22.5,1.725504,3.80859375,15.625,-8.75,15.78125,-9.21875,16.078431372549,15.1764705882353,96.8,0,37.29,14.07936,183.2,114.8,32.8125,0,25,26.5625,
6,2017-09-04,19:41:27.04369,0.29325,,,,14.4627450980392,75.2941176470588,-3.3203125,9.375,7.2265625,9.375,26.5625,1.93248,1.8,14.7,26.5625,40,0,2531.25,15.08392496,6.5611092,-8.52281576,22.5,1.725504,3.796875,15,-7.5,15.625,-9.21875,16.078431372549,15.1764705882353,96.8,0,37.29,14.07936,183.2,114.8,29.6875,0,23.4375,25,
7,2017-09-04,19:41:27.10570,0.35523,,,,14.4627450980392,75.2941176470588,-3.7109375,9.375,7.2265625,9.375,25,1.952,1.7,14.7,25,41,0,2531.25,15.08392496,5.789214,-9.29471096,19,1.686288,3.5859375,15,-7.5,15.625,-9.21875,16.078431372549,15.1764705882353,96.8,0,37.29,14.07936,183.2,114.8,28.125,0,21.875,23.4375,
8,2017-09-04,19:41:27.17070,0.41985,,,,14.7764705882353,76.078431372549,-3.7109375,9.375,7.2265625,9.375,23.4375,2.08864,1.6,14.7,23.4375,41,0,2539.0625,15.08392496,5.789214,-9.29471096,19,1.686288,3.38541666666667,14.375,-6.25,15.3125,-8.4375,15.2941176470588,15.1764705882353,96.8,0,37.29,14.07936,183.2,114.8,26.5625,0,20.3125,21.875,
9,2017-09-04,19:41:27.22370,0.47278,,,,14.8156862745098,76.078431372549,-3.7109375,9.375,7.2265625,9.375,21.875,2.10816,1.7,14.7,21.875,41,0,2531.25,15.08392496,5.4032664,-9.68065856,19,1.647072,3.5859375,14.375,-6.25,15.3125,-8.4375,15.2941176470588,15.1764705882353,96.8,0,37.29,14.07936,183.2,114.8,26.5625,0,18.75,21.875,
10,2017-09-04,19:41:27.26871,0.51753,,,,14.8156862745098,76.078431372549,-4.296875,9.375,7.2265625,9.375,21.875,2.12768,1.6,14.7,21.875,41,0,2531.25,15.08392496,5.4032664,-9.68065856,19,1.647072,3.375,14.375,-5.625,14.6875,-7.65625,15.2941176470588,15.1764705882353,96.8,0,37.29,14.07936,183.2,114.8,25,0,17.1875,20.3125,
11,2017-09-04,19:41:27.33071,0.58028,,,,14.7764705882353,76.078431372549,-4.296875,9.375,7.2265625,9.375,20.3125,2.08864,1.6,14.7,20.3125,42,0,2523.4375,15.08392496,4.9208319,-10.16309306,13.5,1.4706,3.36458333333333,14.375,-5.625,14.6875,-7.65625,12.9411764705882,12.1411764705882,96.8,0,37.29,14.07936,183.2,114.8,21.875,0,12.5,17.1875,
12,2017-09-04,19:41:27.39171,0.64104,,,,14.6980392156863,76.078431372549,-4.296875,9.375,7.2265625,9.375,17.1875,2.0496,1.4,14.7,17.1875,42,0,2515.625,15.08392496,4.9208319,-10.16309306,13.5,1.4706,2.93489583333333,13.125,-3.75,14.375,-6.40625,12.9411764705882,12.1411764705882,96.8,0,37.29,14.00603,183.2,114.8,20.3125,0,17.1875,17.1875,
13,2017-09-04,19:41:27.45072,0.7,,,,14.6588235294118,76.078431372549,-4.8828125,7.2265625,7.2265625,9.375,17.1875,2.03008,1.5,14.7,17.1875,42,0,2492.1875,15.08392496,4.0524498,-11.03147516,12.5,1.588248,3.115234375,13.125,-3.75,14.375,-6.40625,12.9411764705882,12.1411764705882,96.8,0,37.29,14.00603,183.2,114.8,18.75,0,17.1875,17.1875,
14,2017-09-04,19:41:27.49572,0.74518,,,,14.7372549019608,75.2941176470588,-4.8828125,7.2265625,7.2265625,9.375,17.1875,2.06912,1.5,14.7,17.1875,42,0,2484.375,15.08392496,4.0524498,-11.03147516,12.5,1.588248,3.10546875,13.125,-3.75,13.59375,-5,12.9411764705882,12.1411764705882,96.8,0,37.29,14.00603,183.2,114.8,18.75,0,15.625,17.1875,
15,2017-09-04,19:41:27.55072,0.79949,,,,14.8156862745098,75.2941176470588,-4.8828125,7.2265625,7.2265625,9.375,17.1875,2.10816,1.5,14.7,17.1875,42,0,2500,15.08392496,3.859476,-11.22444896,12.5,1.549032,3.125,13.125,-3.75,13.59375,-5,12.9411764705882,12.1411764705882,96.8,0,37.29,14.07936,183.2,114.8,18.75,0,15.625,17.1875,
16,2017-09-04,19:41:27.59772,0.84707,,,,14.8549019607843,75.2941176470588,-5.2734375,7.2265625,7.2265625,9.375,17.1875,2.10816,1.4,14.7,17.1875,42,0,2523.4375,15.08392496,3.859476,-11.22444896,12.5,1.549032,2.94401041666667,12.5,-3.75,13.125,-4.53125,12.9411764705882,12.1411764705882,96.8,0,37.29,14.07936,183.2,114.8,17.1875,0,17.1875,17.1875,
17,2017-09-04,19:41:27.64473,0.89337,,,,14.8549019607843,75.2941176470588,-5.2734375,7.2265625,7.2265625,9.375,17.1875,2.12768,1.5,14.7,17.1875,42,0,2523.4375,15.08392496,3.7629891,-11.32093586,12,1.549032,3.154296875,12.5,-3.75,13.125,-4.53125,12.156862745098,9.10588235294118,96.8,0,37.29,14.07936,183.2,114.8,17.1875,0,14.0625,15.625,
18,2017-09-04,19:41:27.69573,0.94479,,,,14.8156862745098,75.2941176470588,-5.2734375,7.2265625,7.2265625,9.375,15.625,2.10816,1.4,14.7,15.625,42,0,2507.8125,15.08392496,3.7629891,-11.32093586,12,1.549032,2.92578125,12.5,-3.125,12.8125,-4.21875,12.156862745098,9.10588235294118,96.8,0,37.29,14.07936,183.2,114.8,15.625,6.25,14.0625,15.625,
19,2017-09-04,19:41:27.75573,1.00445,,,,14.9333333333333,76.078431372549,-5.6640625,7.2265625,7.2265625,9.375,14.0625,2.20576,1.4,14.7,14.0625,43,0,2476.5625,15.08392496,3.0875808,-11.99634416,8,1.509816,2.88932291666667,12.5,-3.125,12.8125,-4.21875,12.156862745098,9.10588235294118,96.8,0,37.29,14.07936,183.2,114.8,14.0625,12.5,14.0625,14.0625,
20,2017-09-04,19:41:27.81974,1.06931,,,,14.5803921568627,76.078431372549,-5.6640625,7.2265625,7.2265625,9.375,12.5,1.97152,1.3,14.7,12.5,43,0,2484.375,15.08392496,3.0875808,-11.99634416,8,1.509816,2.69140625,11.25,-1.875,12.5,-3.90625,11.3725490196078,9.61176470588235,96.8,0,37.29,14.07936,183.2,114.8,12.5,10.9375,12.5,12.5,
21,2017-09-04,19:41:27.87274,1.12135,,,,14.3450980392157,76.078431372549,-5.6640625,7.2265625,7.2265625,9.375,12.5,1.87392,1.3,14.7,12.5,0,0,2500,15.08392496,2.894607,-12.18931796,8,1.56864,2.70833333333333,11.25,-1.875,12.5,-3.90625,11.3725490196078,9.61176470588235,96.8,0,37.29,14.00603,183.2,114.8,12.5,10.9375,17.1875,12.5,
22,2017-09-04,19:41:27.92474,1.17394,,,,14.1490196078431,76.078431372549,-6.25,7.2265625,7.2265625,9.375,10.9375,1.7568,1.3,14.7,12.5,2,0,2429.6875,15.08392496,2.894607,-12.18931796,8,1.56864,2.63216145833333,11.25,-1.25,11.5625,-2.65625,11.3725490196078,9.61176470588235,96.8,0,37.29,14.00603,183.2,114.8,12.5,10.9375,17.1875,12.5,
23,2017-09-04,19:41:27.97275,1.22142,,,,13.9529411764706,76.078431372549,-6.25,7.2265625,7.2265625,9.375,12.5,1.67872,1.3,14.7,12.5,3,0,2375,15.08392496,2.894607,-12.18931796,8,1.529424,2.57291666666667,11.25,-1.25,11.5625,-2.65625,11.3725490196078,9.10588235294118,96.8,0,37.29,14.00603,183.2,114.8,10.9375,10.9375,15.625,10.9375,
24,2017-09-04,19:41:28.02475,1.27416,,,,13.7960784313725,76.078431372549,-6.25,7.2265625,7.2265625,9.375,10.9375,1.60064,1.3,14.7,12.5,4,0,2296.875,15.08392496,2.894607,-12.18931796,8,1.529424,2.48828125,11.25,-1.25,11.25,-2.03125,11.3725490196078,9.10588235294118,96.8,0,36.047,14.00603,183.2,114.8,12.5,0,17.1875,12.5,
25,2017-09-04,19:41:28.08475,1.3338,,,,13.6392156862745,76.078431372549,-6.640625,7.2265625,7.2265625,9.375,14.0625,1.50304,1.4,14.7,15.625,41,0,2234.375,15.08392496,4.5348843,-10.54904066,39,2.313744,2.60677083333333,11.25,-1.25,11.25,-2.03125,11.3725490196078,9.10588235294118,96.8,0,36.047,14.00603,183.2,114.8,28.125,0,117.1875,28.125,
26,2017-09-04,19:41:28.15476,1.40352,,,,13.4039215686274,75.2941176470588,-6.640625,7.2265625,7.2265625,9.375,37.5,1.40544,5,14.7,54.6875,37,0,2195.3125,15.08392496,4.5348843,-10.54904066,39,2.313744,9.14713541666667,22.5,-13.75,11.40625,-2.1875,40.7843137254902,37.4352941176471,96.8,0,36.047,14.00603,183.2,114.8,85.9375,0,81.25,71.875,
27,2017-09-04,19:41:28.21476,1.46373,,,,13.2862745098039,75.2941176470588,-6.640625,7.2265625,7.2265625,9.375,71.875,1.34688,3.6,14.7,71.875,3,0,2460.9375,15.08392496,13.9906005,-1.09332446,41,2.215704,7.3828125,22.5,-13.75,11.40625,-2.1875,40.7843137254902,37.4352941176471,96.8,0,36.047,14.07936,183.2,114.8,78.125,43.75,56.25,70.3125,
28,2017-09-04,19:41:28.27476,1.5237,,,,13.3254901960784,75.2941176470588,-7.2265625,9.375,7.2265625,9.375,67.1875,1.34688,2.1,14.7,62.5,20,0,2695.3125,15.08392496,13.9906005,-1.09332446,41,2.215704,4.716796875,20.625,-13.75,20.625,-8.90625,40.7843137254902,37.4352941176471,96.8,0,36.047,14.07936,183.2,114.8,51.5625,45.3125,25,48.4375,
29,2017-09-04,19:41:28.34177,1.59093,,,,13.2470588235294,75.2941176470588,-7.2265625,9.375,7.2265625,9.375,48.4375,1.32736,1.6,14.7,42.1875,29,0,2953.125,15.08392496,8.0084127,-7.07551226,13.5,1.588248,3.9375,20.625,-13.75,20.625,-8.90625,14.1176470588235,9.61176470588235,96.8,0,36.047,14.07936,183.2,114.8,32.8125,29.6875,10.9375,29.6875,
30,2017-09-04,19:41:28.40677,1.65587,,,,13.1686274509804,76.078431372549,-7.2265625,9.375,7.2265625,9.375,29.6875,1.28832,1.4,14.7,26.5625,40,0,3054.6875,15.08392496,8.0084127,-7.07551226,13.5,1.588248,3.56380208333333,14.375,-6.875,19.6875,-10,14.1176470588235,9.61176470588235,96.8,0,36.047,14.00603,183.2,114.8,21.875,20.3125,12.5,20.3125,
31,2017-09-04,19:41:28.46177,1.71093,,,,13.0509803921569,76.078431372549,-8.0078125,9.375,7.2265625,9.375,20.3125,1.22976,1.4,14.7,20.3125,42,0,3054.6875,15.08392496,4.5348843,-10.54904066,9,1.627464,3.56380208333333,14.375,-6.875,19.6875,-10,14.1176470588235,9.61176470588235,96.8,0,36.047,14.00603,183.2,114.8,18.75,17.1875,15.625,18.75,
32,2017-09-04,19:41:28.52278,1.77218,,,,13.1686274509804,76.078431372549,-8.0078125,9.375,7.2265625,9.375,18.75,1.28832,1.4,14.7,18.75,42,0,3070.3125,15.08392496,4.5348843,-10.54904066,9,1.627464,3.58203125,11.875,-4.375,17.96875,-7.96875,12.5490196078431,9.61176470588235,96.8,0,36.047,14.00603,183.2,114.8,17.1875,14.0625,17.1875,17.1875,
33,2017-09-04,19:41:28.58078,1.83026,,,,13.6392156862745,76.078431372549,-8.0078125,9.375,7.2265625,9.375,17.1875,1.52256,1.3,14.7,15.625,42,0,3156.25,15.08392496,3.3770415,-11.70688346,6.5,1.627464,3.41927083333333,11.875,-4.375,17.96875,-7.96875,12.5490196078431,9.61176470588235,96.8,0,34.804,14.07936,183.2,114.8,14.0625,12.5,15.625,14.0625,
34,2017-09-04,19:41:28.63978,1.88883,,,,14.0705882352941,76.078431372549,-8.7890625,7.2265625,7.2265625,9.375,14.0625,1.93248,1.3,14.7,14.0625,42,0,3257.8125,15.08392496,3.3770415,-11.70688346,6.5,1.627464,3.529296875,11.25,-2.5,16.09375,-5.46875,12.5490196078431,9.61176470588235,96.8,0,34.804,14.07936,183.2,114.8,12.5,10.9375,17.1875,12.5,
35,2017-09-04,19:41:28.69579,1.9453,,,,15.5607843137255,76.078431372549,-8.7890625,7.2265625,7.2265625,9.375,12.5,2.47904,1.3,14.7,12.5,42,0,3226.5625,15.08392496,2.7981201,-12.28580486,5.5,1.588248,3.49544270833333,11.25,-2.5,16.09375,-5.46875,11.7647058823529,9.61176470588235,96.8,0,34.804,14.07936,183.2,114.8,10.9375,9.375,14.0625,10.9375,
36,2017-09-04,19:41:28.75579,2.00496,,,,16.1490196078431,75.2941176470588,-8.7890625,7.2265625,7.2265625,9.375,10.9375,2.79136,1.3,14.7,10.9375,42,0,3164.0625,15.08392496,2.7981201,-12.28580486,5.5,1.588248,3.427734375,10.625,-0.625,14.53125,-3.28125,11.7647058823529,9.61176470588235,96.8,0,34.804,14.00603,183.2,114.8,9.375,7.8125,17.1875,9.375,
37,2017-09-04,19:41:28.81379,2.06284,,,,16.3450980392157,75.2941176470588,0,7.2265625,7.2265625,9.375,9.375,2.88896,1.2,14.7,9.375,42,0,3195.3125,15.08392496,2.5086594,-12.57526556,5,1.647072,3.1953125,10.625,-0.625,14.53125,-3.28125,11.7647058823529,9.61176470588235,96.8,0,34.804,14.00603,183.2,114.8,9.375,7.8125,15.625,9.375,
38,2017-09-04,19:41:28.87180,2.12133,,,,16.2274509803922,75.2941176470588,0,7.2265625,7.2265625,9.375,9.375,2.81088,1.3,14.7,9.375,-10,0,3210.9375,15.08392496,2.5086594,-12.57526556,5,1.647072,3.478515625,10,0,12.96875,-0.625,12.5490196078431,9.61176470588235,96.8,0,34.804,14.00603,183.2,114.8,9.375,0,18.75,9.375,
39,2017-09-04,19:41:28.92580,2.1747,,,,15.7960784313725,75.2941176470588,0,7.2265625,7.2265625,9.375,9.375,2.59616,0,14.7,9.375,-10,0,3171.875,15.08392496,2.7016332,-12.38229176,10.5,1.705896,0,10,0,12.96875,-0.625,12.5490196078431,9.61176470588235,96.8,0,34.804,14.07936,183.2,114.8,12.5,0,18.75,12.5,
40,2017-09-04,19:41:28.97880,2.22753,,,,15.6,76.078431372549,0,7.2265625,7.2265625,9.375,12.5,2.45952,0,14.7,14.0625,-10,0,3117.1875,15.08392496,2.7016332,-12.38229176,10.5,1.705896,0,11.25,-2.5,11.71875,-0.15625,12.5490196078431,9.61176470588235,96.8,0,34.804,14.07936,183.2,114.8,14.0625,0,15.625,14.0625,
41,2017-09-04,19:41:29.03081,2.27965,,,,15.2078431372549,76.078431372549,0,7.2265625,7.2265625,9.375,14.0625,2.30336,0,14.7,14.0625,-10,0,3125,15.08392496,3.2805546,-11.80337036,11,1.56864,0,11.25,-2.5,11.71875,-0.15625,14.1176470588235,10.1176470588235,96.8,0,34.804,14.07936,183.2,114.8,15.625,0,14.0625,14.0625,
42,2017-09-04,19:41:29.07781,2.32701,,,,15.2470588235294,76.078431372549,0,7.2265625,7.2265625,9.375,14.0625,2.32288,0,14.7,14.0625,-10,0,3140.625,15.08392496,3.2805546,-11.80337036,11,1.56864,0,11.25,-2.5,11.5625,-0.3125,14.1176470588235,10.1176470588235,96.8,0,34.804,14.07936,183.2,114.8,15.625,0,14.0625,14.0625,
43,2017-09-04,19:41:29.12181,2.37095,,,,14.7764705882353,76.078431372549,0,7.2265625,7.2265625,9.375,14.0625,2.08864,0,14.7,14.0625,-10,0,3132.8125,15.08392496,3.3770415,-11.70688346,11,1.627464,0,11.25,-2.5,11.5625,-0.3125,14.1176470588235,10.1176470588235,96.8,0,34.804,14.07936,183.2,114.8,15.625,0,15.625,15.625,
44,2017-09-04,19:41:29.16381,2.41251,,,,14.6980392156863,76.078431372549,0,7.2265625,7.2265625,9.375,15.625,2.0496,0,14.7,15.625,-10,0,3125,15.08392496,3.3770415,-11.70688346,11,1.627464,0,11.25,-2.5,11.25,-0.3125,14.1176470588235,10.1176470588235,96.8,0,34.804,14.07936,183.2,114.8,15.625,0,14.0625,15.625,
45,2017-09-04,19:41:29.20482,2.45422,,,,14.4627450980392,76.078431372549,0,7.2265625,7.2265625,9.375,15.625,1.93248,0,14.7,15.625,-10,0,3132.8125,15.08392496,3.3770415,-11.70688346,11,1.607856,0,11.25,-2.5,11.25,-0.3125,14.1176470588235,10.1176470588235,96.8,0,34.804,14.00603,183.2,114.8,15.625,0,14.0625,14.0625,
46,2017-09-04,19:41:29.24582,2.49463,,,,15.2078431372549,76.078431372549,0,7.2265625,7.2265625,9.375,14.0625,2.36192,0,14.7,14.0625,-10,0,3140.625,15.08392496,3.3770415,-11.70688346,11,1.607856,0,11.25,-2.5,11.25,-0.46875,14.1176470588235,10.1176470588235,96.8,0,34.804,14.00603,183.2,114.8,15.625,0,15.625,14.0625,
47,2017-09-04,19:41:29.28882,2.53753,,,,15.9137254901961,76.078431372549,0,7.2265625,7.2265625,9.375,15.625,2.79136,0,14.7,15.625,-10,0,3125,15.08392496,3.3770415,-11.70688346,11,1.627464,0,11.25,-2.5,11.25,-0.46875,14.1176470588235,10.1176470588235,96.8,0,34.804,14.00603,183.2,114.8,15.625,0,15.625,15.625,
48,2017-09-04,19:41:29.33282,2.58179,,,,17.6392156862745,76.078431372549,0,7.2265625,7.2265625,9.375,15.625,3.5136,0,14.7,15.625,-10,0,3101.5625,15.08392496,3.3770415,-11.70688346,11,1.627464,0,11.25,-2.5,11.25,-0.625,14.1176470588235,10.1176470588235,96.8,0,34.804,14.07936,183.2,114.8,15.625,0,14.0625,15.625,
49,2017-09-04,19:41:29.38283,2.63161,,,,19.3647058823529,75.2941176470588,0.1953125,7.2265625,7.2265625,9.375,15.625,4.45056,1.6,14.7,15.625,-10,0,3085.9375,15.08392496,3.3770415,-11.70688346,12,1.607856,4.11458333333333,11.25,-2.5,11.25,-0.625,14.1176470588235,10.1176470588235,96.8,0,34.804,14.07936,183.2,114.8,15.625,0,15.625,14.0625,
50,2017-09-04,19:41:29.43783,2.68656,,,,19.6,75.2941176470588,0.1953125,7.2265625,7.2265625,9.375,15.625,4.4896,1.7,14.7,15.625,-5,0,3093.75,15.08392496,3.3770415,-11.70688346,12,1.607856,4.3828125,11.875,-3.75,11.25,-0.9375,16.4705882352941,15.6823529411765,96.8,0,34.804,14.07936,183.2,114.8,18.75,0,21.875,18.75,
51,2017-09-04,19:41:29.49083,2.73948,,,,19.6,76.078431372549,0.1953125,7.2265625,7.2265625,9.375,18.75,4.4896,1.8,14.7,18.75,12,0,3109.375,15.08392496,4.2454236,-10.83850136,15.5,1.705896,4.6640625,11.875,-3.75,11.25,-0.9375,16.4705882352941,15.6823529411765,96.8,0,34.804,14.07936,183.2,114.8,20.3125,0,21.875,20.3125,
52,2017-09-04,19:41:29.54984,2.79882,,,,19.6,75.2941176470588,0.9765625,9.375,7.2265625,9.375,20.3125,4.4896,1.8,14.7,20.3125,27,0,3117.1875,15.08392496,4.2454236,-10.83850136,15.5,1.705896,4.67578125,12.5,-5.625,11.25,-1.5625,16.4705882352941,15.6823529411765,96.8,0,34.804,14.07936,183.2,114.8,21.875,0,20.3125,20.3125,
53,2017-09-04,19:41:29.58984,2.83871,,,,19.6,76.078431372549,0.9765625,9.375,7.2265625,9.375,20.3125,4.4896,1.8,14.7,20.3125,37,0,3117.1875,15.08392496,4.6313712,-10.45255376,15.5,1.745112,4.67578125,12.5,-5.625,11.25,-1.5625,16.4705882352941,15.1764705882353,96.8,0,34.804,14.07936,183.2,114.8,21.875,0,21.875,20.3125,
54,2017-09-04,19:41:29.62784,2.87653,,,,19.6,76.078431372549,0.9765625,9.375,7.2265625,9.375,20.3125,4.4896,1.8,14.7,20.3125,44,0,3117.1875,15.08392496,4.6313712,-10.45255376,15.5,1.745112,4.67578125,13.125,-5.625,12.03125,-2.1875,16.4705882352941,15.1764705882353,96.8,0,34.804,14.00603,183.2,114.8,21.875,0,20.3125,20.3125,
55,2017-09-04,19:41:29.67084,2.9201,,,,19.6,75.2941176470588,1.7578125,9.375,7.2265625,9.375,20.3125,4.4896,1.8,14.7,20.3125,44,0,3125,15.08392496,4.7278581,-10.35606686,15.5,1.705896,4.6875,13.125,-5.625,12.03125,-2.1875,16.4705882352941,15.1764705882353,96.8,0,34.804,14.00603,183.2,114.8,21.875,0,20.3125,20.3125,
56,2017-09-04,19:41:29.71285,2.9617,,,,19.6,76.078431372549,1.7578125,9.375,7.2265625,9.375,20.3125,4.4896,1.7,14.7,20.3125,44,0,3117.1875,15.08392496,4.7278581,-10.35606686,15.5,1.705896,4.416015625,13.125,-5.625,12.34375,-2.65625,16.4705882352941,15.1764705882353,96.8,0,34.804,14.00603,183.2,114.8,21.875,0,20.3125,20.3125,
57,2017-09-04,19:41:29.75685,3.00617,,,,19.6,76.078431372549,1.7578125,9.375,7.2265625,9.375,20.3125,4.4896,1.7,14.7,20.3125,44,0,3078.125,15.08392496,4.824345,-10.25957996,16.5,1.725504,4.36067708333333,13.125,-5.625,12.34375,-2.65625,16.4705882352941,15.1764705882353,96.8,0,34.804,14.07936,183.2,114.8,21.875,0,21.875,21.875,
58,2017-09-04,19:41:29.81185,3.06106,,,,17.8745098039216,76.078431372549,2.1484375,9.375,7.2265625,9.375,21.875,3.1232,1.7,14.7,21.875,43,0,3054.6875,15.08392496,4.824345,-10.25957996,16.5,1.725504,4.32747395833333,13.125,-5.625,12.8125,-3.4375,16.4705882352941,15.1764705882353,96.8,0,34.804,14.07936,183.2,114.8,23.4375,0,20.3125,20.3125,
59,2017-09-04,19:41:29.86685,3.11548,,,,14.8156862745098,76.078431372549,2.1484375,9.375,7.2265625,9.375,21.875,2.10816,1.7,14.7,21.875,43,0,3062.5,15.08392496,4.9208319,-10.16309306,15.5,1.705896,4.33854166666667,13.125,-5.625,12.8125,-3.4375,16.078431372549,14.6705882352941,96.8,0,34.804,14.07936,183.2,114.8,23.4375,0,20.3125,20.3125,
60,2017-09-04,19:41:29.91686,3.16587,,,,13.756862745098,76.078431372549,2.1484375,9.375,7.2265625,9.375,20.3125,1.58112,1.7,14.7,20.3125,44,0,3078.125,15.08392496,4.9208319,-10.16309306,15.5,1.705896,4.36067708333333,13.125,-5.625,12.8125,-3.90625,16.078431372549,14.6705882352941,96.8,0,34.804,14.00603,183.2,114.8,21.875,0,18.75,20.3125,
61,2017-09-04,19:41:29.97186,3.22053,,,,13.3254901960784,76.078431372549,1.5625,9.375,7.2265625,9.375,20.3125,1.34688,1.6,14.7,18.75,44,0,3078.125,15.08392496,4.2454236,-10.83850136,10.5,1.529424,4.10416666666667,13.125,-5.625,12.8125,-3.90625,16.078431372549,14.6705882352941,96.8,0,34.804,14.00603,183.2,114.8,18.75,6.25,10.9375,18.75,
62,2017-09-04,19:41:30.03786,3.28668,,,,13.1686274509804,75.2941176470588,1.5625,9.375,7.2265625,9.375,17.1875,1.28832,1.6,14.7,17.1875,43,0,3070.3125,15.08392496,4.2454236,-10.83850136,10.5,1.529424,4.09375,11.875,-3.75,12.96875,-4.21875,13.7254901960784,9.61176470588235,96.8,0,34.804,14.00603,183.2,114.8,15.625,14.0625,14.0625,15.625,
63,2017-09-04,19:41:30.09787,3.34661,,,,13.2078431372549,75.2941176470588,1.5625,9.375,7.2265625,9.375,15.625,1.30784,1.5,14.7,15.625,42,0,3039.0625,15.08392496,3.5700153,-11.51390966,11,1.529424,3.798828125,11.875,-3.75,12.96875,-4.21875,13.7254901960784,9.61176470588235,96.8,0,33.561,14.00603,183.2,114.8,15.625,14.0625,12.5,14.0625,
64,2017-09-04,19:41:30.16387,3.41301,,,,13.2470588235294,76.078431372549,0.78125,7.2265625,7.2265625,9.375,14.0625,1.32736,1.5,14.7,14.0625,42,0,3007.8125,15.08392496,3.5700153,-11.51390966,11,1.529424,3.759765625,11.25,-2.5,12.1875,-3.90625,13.7254901960784,9.61176470588235,96.8,0,33.561,14.00603,183.2,114.8,15.625,14.0625,14.0625,14.0625,
65,2017-09-04,19:41:30.21687,3.46552,,,,13.3647058823529,75.2941176470588,0.78125,7.2265625,7.2265625,9.375,14.0625,1.38592,1.4,14.7,14.0625,42,0,3023.4375,15.08392496,3.4735284,-11.61039656,11,1.549032,3.52734375,11.25,-2.5,12.1875,-3.90625,13.7254901960784,9.10588235294118,96.8,0,33.561,14.00603,183.2,114.8,15.625,14.0625,12.5,14.0625,
66,2017-09-04,19:41:30.25188,3.50066,,,,13.3647058823529,76.078431372549,0.78125,7.2265625,7.2265625,9.375,14.0625,1.38592,1.4,14.7,14.0625,42,0,3054.6875,15.08392496,3.4735284,-11.61039656,11,1.549032,3.56380208333333,11.25,-2.5,11.875,-3.4375,13.7254901960784,9.10588235294118,96.8,0,33.561,14.00603,183.2,114.8,14.0625,12.5,14.0625,14.0625,
67,2017-09-04,19:41:30.30588,3.55531,,,,13.3254901960784,75.2941176470588,0.1953125,7.2265625,7.2265625,9.375,14.0625,1.32736,1.4,14.7,14.0625,42,0,3078.125,15.08392496,3.3770415,-11.70688346,10.5,1.56864,3.59114583333333,11.25,-2.5,11.875,-3.4375,13.7254901960784,9.10588235294118,96.8,0,33.561,14.00603,183.2,114.8,14.0625,12.5,12.5,14.0625,
68,2017-09-04,19:41:30.35888,3.60776,,,,13.1294117647059,76.078431372549,0.1953125,7.2265625,7.2265625,9.375,14.0625,1.2688,1.4,14.7,14.0625,42,0,3054.6875,15.08392496,3.3770415,-11.70688346,10.5,1.56864,3.56380208333333,11.25,-1.875,11.71875,-3.125,13.7254901960784,9.61176470588235,96.8,0,33.561,14.00603,183.2,114.8,14.0625,12.5,10.9375,12.5,
69,2017-09-04,19:41:30.40689,3.65583,,,,12.8549019607843,76.078431372549,0.1953125,7.2265625,7.2265625,9.375,14.0625,1.13216,1.4,14.7,12.5,42,0,3023.4375,15.08392496,3.2805546,-11.80337036,10,1.529424,3.52734375,11.25,-1.875,11.71875,-3.125,13.7254901960784,9.61176470588235,96.8,0,33.561,14.00603,183.2,114.8,14.0625,12.5,12.5,12.5,
70,2017-09-04,19:41:30.44989,3.69873,,,,12.6980392156863,76.078431372549,-0.390625,7.2265625,7.2265625,9.375,12.5,1.03456,1.4,14.7,12.5,42,0,3023.4375,15.08392496,3.2805546,-11.80337036,10,1.529424,3.52734375,10.625,-1.875,11.71875,-2.96875,13.7254901960784,9.61176470588235,96.8,0,33.561,14.00603,183.2,114.8,14.0625,12.5,10.9375,12.5,
71,2017-09-04,19:41:30.49589,3.74535,,,,12.5411764705882,76.078431372549,-0.390625,7.2265625,7.2265625,9.375,12.5,0.976,1.4,14.7,12.5,42,0,3023.4375,15.08392496,3.1840677,-11.89985726,9,1.509816,3.52734375,10.625,-1.875,11.71875,-2.96875,12.9411764705882,9.61176470588235,96.8,0,33.561,14.00603,183.2,114.8,12.5,10.9375,14.0625,12.5,